User: anonymous   Login
Location: ??
(34.7707°N, 135.6540°E)
Time: 15:41:21
(UTC+00:00)
Language:

PAYLOAD A - Orbit

View from above orbital plane
View from above orbital plane
View from above satellite
View from above satellite

Ground track
Ground track

The orbit data is extracted from the following two-line orbital elements,

1 27840U 03031A   21215.48805106 -.00000015  00000-0  95556-5 0  9993
2 27840  98.3763 182.3609 0096966 261.7211  97.2972 14.38963571950214
Epoch (UTC): 03 August 2021 11:42:47
Eccentricity: 0.0096966
inclination: 98.3763°
perigee height: 692 km
apogee height: 831 km
right ascension of ascending node: 182.3609°
argument of perigee: 261.7211°
revolutions per day: 14.38963571
mean anomaly at epoch: 97.2972°
orbit number at epoch: 95021

The dashed part of the orbit path shows where the satellite is in the earth's shadow,  

DLR